When you browse on this site, cookies collect data to enhance your experience and personalize the content and advertising you see.
Visit our Privacy Policy to learn more. By continuing to use the site, you agree to this use of cookies and data.
  • In Österreich
  • Länderverzeichnis
  • Für 7 Tage
  • Wassertemperatur
  • Wetterkarte
  • News
  • Widgets
  • user-avatar
    Anmelden

    Stündliche Wetter Podvoste

    Heute, 4 Juni, Donnerstag

    Zeit Temperatur Niederschläge Wind Luftdruck Luftfeuchtigkeit
    00:00 +6°C° 0 mm 2 m/S 740 mmHg 95%
    01:00 +6°C° 0 mm 2 m/S 740 mmHg 96%
    02:00 +5°C° 0 mm 2 m/S 740 mmHg 97%
    03:00 +5°C° 0 mm 2 m/S 740 mmHg 98%
    04:00 +5°C° 0 mm 2 m/S 740 mmHg 98%
    05:00 +5°C° 0 mm 2 m/S 739 mmHg 99%
    06:00 +7°C° 0 mm 2 m/S 740 mmHg 95%
    07:00 +9°C° 0 mm 2 m/S 740 mmHg 91%
    08:00 +10°C° 0 mm 2 m/S 740 mmHg 88%
    09:00 +12°C° 0.2 mm 2 m/S 739 mmHg 83%
    10:00 +13°C° 0.2 mm 3 m/S 739 mmHg 78%
    11:00 +14°C° 0.2 mm 3 m/S 739 mmHg 73%
    12:00 +14°C° 0.6 mm 3 m/S 739 mmHg 74%
    13:00 +16°C° 0.6 mm 3 m/S 739 mmHg 74%
    14:00 +16°C° 0 mm 3 m/S 739 mmHg 74%
    15:00 +16°C° 0.6 mm 3 m/S 739 mmHg 75%
    16:00 +16°C° 0.6 mm 3 m/S 739 mmHg 76%
    17:00 +16°C° 0.6 mm 3 m/S 738 mmHg 77%
    18:00 +13°C° 0.5 mm 3 m/S 738 mmHg 82%
    19:00 +12°C° 0.5 mm 3 m/S 738 mmHg 86%
    20:00 +12°C° 0.5 mm 2 m/S 738 mmHg 90%
    21:00 +10°C° 0.1 mm 2 m/S 738 mmHg 92%
    22:00 +10°C° 0.1 mm 2 m/S 738 mmHg 93%
    23:00 +9°C° 0.1 mm 2 m/S 739 mmHg 95%

    Morgen, 5 Juni, Freitag

    Zeit Temperatur Niederschläge Wind Luftdruck Luftfeuchtigkeit
    00:00 +8°C° 0 mm 2 m/S 739 mmHg 95%
    01:00 +8°C° 0 mm 2 m/S 739 mmHg 95%
    02:00 +9°C° 0 mm 1 m/S 739 mmHg 95%
    03:00 +9°C° 0 mm 1 m/S 739 mmHg 95%
    04:00 +9°C° 0 mm 1 m/S 738 mmHg 95%
    05:00 +9°C° 0 mm 1 m/S 738 mmHg 95%
    06:00 +11°C° 0 mm 1 m/S 739 mmHg 91%
    07:00 +13°C° 0 mm 1 m/S 739 mmHg 87%
    08:00 +15°C° 0 mm 2 m/S 739 mmHg 82%
    09:00 +17°C° 0 mm 2 m/S 739 mmHg 77%
    10:00 +19°C° 0 mm 3 m/S 739 mmHg 71%
    11:00 +20°C° 0 mm 3 m/S 739 mmHg 65%
    12:00 +20°C° 0.8 mm 4 m/S 739 mmHg 72%
    13:00 +20°C° 0.8 mm 5 m/S 740 mmHg 78%
    14:00 +20°C° 0.8 mm 5 m/S 740 mmHg 84%
    15:00 +20°C° 0.4 mm 5 m/S 740 mmHg 82%
    16:00 +20°C° 0.4 mm 4 m/S 740 mmHg 81%
    17:00 +21°C° 0.4 mm 4 m/S 740 mmHg 80%
    18:00 +19°C° 0 mm 4 m/S 740 mmHg 82%
    19:00 +18°C° 0 mm 3 m/S 740 mmHg 85%
    20:00 +17°C° 0 mm 3 m/S 740 mmHg 88%
    21:00 +17°C° 0.2 mm 3 m/S 740 mmHg 90%
    22:00 +16°C° 0.2 mm 3 m/S 740 mmHg 93%
    23:00 +16°C° 0.2 mm 3 m/S 741 mmHg 95%

    übermorgen, 6 Juni, Samstag

    Zeit Temperatur Niederschläge Wind Luftdruck Luftfeuchtigkeit
    00:00 +16°C° 0 mm 3 m/S 741 mmHg 95%
    01:00 +14°C° 0 mm 3 m/S 741 mmHg 95%
    02:00 +14°C° 0 mm 3 m/S 741 mmHg 95%
    03:00 +16°C° 0 mm 3 m/S 741 mmHg 94%
    04:00 +15°C° 0 mm 4 m/S 741 mmHg 94%
    05:00 +15°C° 0 mm 4 m/S 741 mmHg 93%
    06:00 +15°C° 0 mm 4 m/S 742 mmHg 92%
    07:00 +16°C° 0 mm 5 m/S 742 mmHg 91%
    08:00 +16°C° 0 mm 5 m/S 743 mmHg 90%
    09:00 +19°C° 0.1 mm 5 m/S 744 mmHg 84%
    10:00 +20°C° 0.1 mm 4 m/S 744 mmHg 77%
    11:00 +22°C° 0.1 mm 4 m/S 744 mmHg 70%
    12:00 +23°C° 0.1 mm 4 m/S 745 mmHg 67%
    13:00 +23°C° 0.1 mm 4 m/S 745 mmHg 64%
    14:00 +25°C° 0.1 mm 4 m/S 745 mmHg 60%
    15:00 +25°C° 0 mm 3 m/S 745 mmHg 60%
    16:00 +25°C° 0 mm 3 m/S 746 mmHg 60%
    17:00 +25°C° 0 mm 3 m/S 746 mmHg 60%
    18:00 +23°C° 0 mm 2 m/S 746 mmHg 68%
    19:00 +21°C° 0 mm 1 m/S 746 mmHg 75%
    20:00 +17°C° 0 mm 0 m/S 747 mmHg 82%
    21:00 +19°C° 0 mm 1 m/S 747 mmHg 83%
    22:00 +18°C° 0 mm 1 m/S 747 mmHg 84%
    23:00 +16°C° 0 mm 1 m/S 748 mmHg 86%

    7 Juni, Sonntag

    Zeit Temperatur Niederschläge Wind Luftdruck Luftfeuchtigkeit
    00:00 +16°C° 0 mm 1 m/S 748 mmHg 88%
    01:00 +15°C° 0 mm 2 m/S 748 mmHg 90%
    02:00 +15°C° 0 mm 2 m/S 748 mmHg 92%
    03:00 +16°C° 0 mm 3 m/S 748 mmHg 91%
    04:00 +16°C° 0 mm 3 m/S 748 mmHg 90%
    05:00 +17°C° 0 mm 3 m/S 748 mmHg 89%
    06:00 +18°C° 0.1 mm 4 m/S 748 mmHg 87%
    07:00 +19°C° 0.1 mm 4 m/S 748 mmHg 86%
    08:00 +20°C° 0.1 mm 5 m/S 748 mmHg 84%
    09:00 +22°C° 0 mm 5 m/S 748 mmHg 76%
    10:00 +25°C° 0 mm 5 m/S 748 mmHg 67%
    11:00 +27°C° 0 mm 6 m/S 748 mmHg 58%
    12:00 +28°C° 0 mm 6 m/S 748 mmHg 56%
    13:00 +28°C° 0 mm 6 m/S 748 mmHg 54%
    14:00 +29°C° 0 mm 6 m/S 748 mmHg 52%
    15:00 +28°C° 0 mm 5 m/S 747 mmHg 55%
    16:00 +28°C° 0 mm 5 m/S 747 mmHg 58%
    17:00 +28°C° 0 mm 5 m/S 747 mmHg 60%
    18:00 +26°C° 0 mm 4 m/S 747 mmHg 67%
    19:00 +23°C° 0 mm 4 m/S 747 mmHg 73%
    20:00 +21°C° 0 mm 3 m/S 747 mmHg 79%
    21:00 +21°C° 0 mm 3 m/S 748 mmHg 82%
    22:00 +20°C° 0 mm 3 m/S 748 mmHg 84%
    23:00 +19°C° 0 mm 3 m/S 749 mmHg 87%

    8 Juni, Montag

    Zeit Temperatur Niederschläge Wind Luftdruck Luftfeuchtigkeit
    00:00 +19°C° 0 mm 3 m/S 749 mmHg 90%
    01:00 +18°C° 0 mm 3 m/S 749 mmHg 92%
    02:00 +17°C° 0 mm 3 m/S 748 mmHg 95%
    03:00 +17°C° 0 mm 3 m/S 748 mmHg 94%
    04:00 +17°C° 0 mm 3 m/S 748 mmHg 93%
    05:00 +17°C° 0 mm 3 m/S 748 mmHg 92%
    06:00 +19°C° 0 mm 3 m/S 748 mmHg 87%
    07:00 +21°C° 0 mm 3 m/S 748 mmHg 82%
    08:00 +22°C° 0 mm 3 m/S 749 mmHg 78%
    09:00 +25°C° 0 mm 4 m/S 749 mmHg 70%
    10:00 +27°C° 0 mm 4 m/S 749 mmHg 63%
    11:00 +28°C° 0 mm 5 m/S 749 mmHg 55%
    12:00 +28°C° 0 mm 5 m/S 749 mmHg 55%
    13:00 +29°C° 0 mm 5 m/S 748 mmHg 54%
    14:00 +29°C° 0 mm 5 m/S 748 mmHg 53%
    15:00 +29°C° 0 mm 5 m/S 748 mmHg 56%
    16:00 +28°C° 0 mm 4 m/S 748 mmHg 60%
    17:00 +28°C° 0 mm 4 m/S 748 mmHg 64%
    18:00 +26°C° 0 mm 3 m/S 747 mmHg 69%
    19:00 +25°C° 0 mm 3 m/S 747 mmHg 74%
    20:00 +22°C° 0 mm 3 m/S 747 mmHg 80%
    21:00 +21°C° 0 mm 3 m/S 747 mmHg 83%
    22:00 +20°C° 0 mm 3 m/S 748 mmHg 86%
    23:00 +19°C° 0 mm 3 m/S 748 mmHg 89%

    9 Juni, Dienstag

    Zeit Temperatur Niederschläge Wind Luftdruck Luftfeuchtigkeit
    00:00 +19°C° 0 mm 3 m/S 748 mmHg 90%
    01:00 +19°C° 0 mm 3 m/S 748 mmHg 92%
    02:00 +19°C° 0 mm 3 m/S 748 mmHg 93%
    03:00 +19°C° 0 mm 3 m/S 748 mmHg 92%
    04:00 +19°C° 0 mm 4 m/S 747 mmHg 92%
    05:00 +19°C° 0 mm 4 m/S 747 mmHg 91%
    06:00 +21°C° 0 mm 4 m/S 747 mmHg 86%
    07:00 +22°C° 0 mm 4 m/S 748 mmHg 80%
    08:00 +25°C° 0 mm 4 m/S 748 mmHg 74%
    09:00 +26°C° 0 mm 5 m/S 748 mmHg 68%
    10:00 +27°C° 0 mm 5 m/S 748 mmHg 62%
    11:00 +29°C° 0 mm 6 m/S 748 mmHg 56%
    12:00 +29°C° 0 mm 6 m/S 748 mmHg 55%
    13:00 +29°C° 0 mm 6 m/S 748 mmHg 54%
    14:00 +30°C° 0 mm 6 m/S 747 mmHg 53%
    15:00 +30°C° 0 mm 5 m/S 747 mmHg 56%
    16:00 +29°C° 0 mm 4 m/S 747 mmHg 59%
    17:00 +29°C° 0 mm 4 m/S 747 mmHg 62%
    18:00 +27°C° 0.2 mm 3 m/S 747 mmHg 68%
    19:00 +26°C° 0.2 mm 3 m/S 747 mmHg 74%
    20:00 +24°C° 0.2 mm 3 m/S 747 mmHg 80%
    21:00 +22°C° 0.1 mm 3 m/S 748 mmHg 82%
    22:00 +21°C° 0.1 mm 3 m/S 748 mmHg 84%
    23:00 +21°C° 0.1 mm 3 m/S 748 mmHg 86%
    Mehr zeigen